This is the latest recevied weather packets stored in our database for station/object W5SDC. If no packets are shown the sender has not sent any weather packets the latest 10 day(s).
| Time | Temp. | Humidity | Pressure | Rain* | Wind** | Luminosity | Snow |
|---|---|---|---|---|---|---|---|
| 1777641626 | 13.89° C | 99% | 1015.3 hPa | 1.02 mm | - | - | - |
| 1777640142 | 14.44° C | 99% | 1014.7 hPa | 0 mm | - | - | - |
| 1777638345 | 14.44° C | 99% | 1014.4 hPa | 1.02 mm | - | - | - |
| 1777637426 | 14.44° C | 99% | 1014 hPa | 2.03 mm | - | - | - |
| 1777633519 | 14.44° C | 99% | 1014 hPa | 3.56 mm | - | - | - |
| 1777632621 | 14.44° C | 99% | 1014.5 hPa | 3.05 mm | - | - | - |
| 1777629631 | 15° C | 99% | 1014.4 hPa | 0.76 mm | - | - | - |
| 1777628420 | 15° C | 99% | 1013.3 hPa | 0.76 mm | - | - | - |
| 1777628127 | 15° C | 99% | 1012.9 hPa | 0.76 mm | - | - | - |
| 1777626350 | 15° C | 99% | 1014 hPa | 0.76 mm | - | - | - |
| 1777626018 | 15° C | 99% | 1013.6 hPa | 0.76 mm | - | - | - |
| 1777625119 | 15° C | 99% | 1013.7 hPa | 0.76 mm | - | - | - |
| 1777621525 | 15.56° C | 99% | 1015.1 hPa | 0 mm | - | - | - |
| 1777620332 | 15.56° C | 99% | 1015.2 hPa | 0 mm | - | - | - |
| 1777620021 | 15.56° C | 99% | 1015.1 hPa | 0 mm | - | - | - |
| 1777616719 | 15.56° C | 99% | 1014 hPa | 0.25 mm | - | - | - |
| 1777614922 | 15.56° C | 99% | 1014 hPa | 0.25 mm | - | - | - |
| 1777614317 | 16.11° C | 99% | 1014.6 hPa | 0.25 mm | - | - | - |
| 1777612831 | 16.67° C | 99% | 1014.6 hPa | 0.25 mm | - | - | - |
| 1777612226 | 16.67° C | 99% | 1014.7 hPa | 0.25 mm | - | - | - |
| 1777611952 | 16.67° C | 99% | 1014.7 hPa | 0.25 mm | - | - | - |
| 1777611347 | 16.67° C | 99% | 1014.8 hPa | 0.51 mm | - | - | - |
| 1777611015 | 16.67° C | 99% | 1014.9 hPa | 0.51 mm | - | - | - |
| 1777608924 | 16.67° C | 99% | 1014.9 hPa | 0.76 mm | - | - | - |
| 1777606815 | 17.22° C | 99% | 1013.8 hPa | 5.84 mm | - | - | - |
* Rain latest hour (hover to see other rain measurements)
** Current wind speed in m/s (hover to see current wind gust speed)